STARLINK-4450 (53491 NORAD) Tracking and Keplerian Element Data

This shows tracking and keplerian element data for the satellite.

Feedback or suggestion? Click here.




ElementValue
Catalog53491
NameSTARLINK-4450
Epoch Orbit1546
Epoch Day324.87865933
Epoch Year2022
RAAN83.9499
Inclination97.6555
Eccentricity0.0003451
Argument of Perigee12.5709
Mean Anonmoly347.5601
Mean Motion15.01255484
Decay Rate2.74E-06
L11 53491U 22099AC 22324.87865933 .00000274 00000+0 25974-4 0 9999
L22 53491 97.6555 83.9499 0003451 12.5709 347.5601 15.01255484 15467



Live tracking and technical data element details for STARLINK-4450 (NORAD 53491). STARLINK-4450 can be tracked NOW for your location showing map with azimuth and elevation plus other details from your city location.







IsCatalogInMostPopularTable: catalog: 53491, numindb: 6
Update: records affected: 1



GetName: 53491 STARLINK-4450

Hit Count: updated at: Tue, 29 Nov 2022 01:02:18 GMT